White Center, Washington, United States
Lat: 47.52N, Lon: 122.35W
Wx Zone: WAZ508
Local Info
Past Weather Observations for Today

NOTE: This archive is for the closest National Weather Service station to White Center. Information may differ from the station used for current weather conditions.

Click here for Long-term Archive

Time Weather Temperature Dewpoint Humidity Pressure Winds Precip Visibility
14:06
Overcast
Light Rain
59°F / 15°C 54°F / 12°C 82% 29.65 in
(1004 mb)
SE 5.8 mph
(SE 9 kph)
0.01 in
(0.25 mm)
9SM
14:00
Overcast
Light Rain
59°F / 15°C 54°F / 12°C 82% 29.65 in
(1004 mb)
SE 8.1 mph
(SE 13 kph)
0.01 in
(0.25 mm)
9SM
13:53
Overcast
Light Rain
59°F / 15°C 54°F / 12°C 82% 29.65 in
(1004 mb)
SE 6.9 mph
(SE 11 kph)
0.05 in
(1.27 mm)
9SM
12:53
Overcast
Light Rain
59°F / 15°C 55°F / 13°C 88% 29.68 in
(1005 mb)
SE 4.6 mph
(SE 7 kph)
0.05 in
(1.27 mm)
7SM
12:02
Overcast
Rain
59°F / 15°C 55°F / 13°C 88% 29.71 in
(1006 mb)
SSE 3.5 mph
(SSE 6 kph)
0.02 in
(0.51 mm)
3SM
11:55
Overcast
Rain
59°F / 15°C 55°F / 13°C 88% 29.71 in
(1006 mb)
SE 6.9 mph
(SE 11 kph)
0.01 in
(0.25 mm)
2 1/2SM
11:53
Overcast
Rain
59°F / 15°C 55°F / 13°C 88% 29.71 in
(1006 mb)
SE 6.9 mph
(SE 11 kph)
0.11 in
(2.79 mm)
3SM
11:01
Overcast
Rain
59°F / 15°C 55°F / 13°C 88% 29.71 in
(1006 mb)
SE 6.9 mph
(SE 11 kph)
0.03 in
(0.76 mm)
3SM
10:53
Overcast
Rain
59°F / 15°C 55°F / 13°C 88% 29.74 in
(1007 mb)
SSE 4.6 mph
(SSE 7 kph)
0.07 in
(1.78 mm)
6SM
09:53
Overcast
Rain
59°F / 15°C 54°F / 12°C 82% 29.74 in
(1007 mb)
SSE 5.8 mph
(SSE 9 kph)
0.13 in
(3.30 mm)
3SM
09:24
Overcast
Rain
59°F / 15°C 54°F / 12°C 82% 29.74 in
(1007 mb)
SSE 4.6 mph
(SSE 7 kph)
0.07 in
(1.78 mm)
3SM
09:17
Overcast
Rain
59°F / 15°C 54°F / 12°C 82% 29.71 in
(1006 mb)
S 3.5 mph
(S 6 kph)
0.05 in
(1.27 mm)
3SM
09:08
Overcast
Rain
59°F / 15°C 54°F / 12°C 82% 29.71 in
(1006 mb)
S 6.9 mph
(S 11 kph)
0.04 in
(1.02 mm)
2SM
09:01
Overcast
Rain
59°F / 15°C 54°F / 12°C 82% 29.71 in
(1006 mb)
SSE 8.1 mph
(SSE 13 kph)
0.02 in
(0.51 mm)
3SM
08:59
Overcast
Light Rain
59°F / 15°C 54°F / 12°C 82% 29.71 in
(1006 mb)
SSE 6.9 mph
(SSE 11 kph)
0.02 in
(0.51 mm)
2 1/2SM
08:53
Overcast
Rain
59°F / 15°C 54°F / 12°C 82% 29.71 in
(1006 mb)
SSE 6.9 mph
(SSE 11 kph)
0.03 in
(0.76 mm)
3SM
08:50
Overcast
Light Rain
59°F / 15°C 54°F / 12°C 82% 29.71 in
(1006 mb)
S 6.9 mph
(S 11 kph)
0.02 in
(0.51 mm)
4SM
08:00
Overcast
Light Rain
59°F / 15°C 54°F / 12°C 82% 29.71 in
(1006 mb)
SSE 6.9 mph
(SSE 11 kph)
0.00 in
(0.00 mm)
10SM
07:53
Overcast
Light Rain
59°F / 15°C 54°F / 12°C 82% 29.71 in
(1006 mb)
SSE 9.2 mph
(SSE 15 kph)
0.02 in
(0.51 mm)
7SM
07:10
Overcast
59°F / 15°C 54°F / 12°C 82% 29.71 in
(1006 mb)
Calm - 10SM
06:53
Mostly Cloudy
59°F / 15°C 54°F / 12°C 82% 29.68 in
(1005 mb)
S 6.9 mph
(S 11 kph)
0.01 in
(0.25 mm)
10SM
06:00
Overcast
Rain
57°F / 14°C 54°F / 12°C 88% 29.68 in
(1005 mb)
S 6.9 mph
(S 11 kph)
0.00 in
(0.00 mm)
9SM
05:53
Overcast
Rain
59°F / 15°C 54°F / 12°C 82% 29.68 in
(1005 mb)
S 9.2 mph
(S 15 kph)
0.15 in
(3.81 mm)
6SM
05:25
Overcast
Rain
57°F / 14°C 52°F / 11°C 82% 29.68 in
(1005 mb)
S 10.4 mph
(S 17 kph)
0.12 in
(3.05 mm)
5SM
05:16
Overcast
Rain
57°F / 14°C 54°F / 12°C 88% 29.68 in
(1005 mb)
SSE 10.4 mph
(SSE 17 kph)
0.11 in
(2.79 mm)
2 1/2SM
04:53
Overcast
Light Rain
57°F / 14°C 54°F / 12°C 88% 29.68 in
(1005 mb)
SSE 10.4 mph
(SSE 17 kph)
0.15 in
(3.81 mm)
7SM
03:53
Overcast
Light Rain
57°F / 14°C 52°F / 11°C 82% 29.65 in
(1004 mb)
SSE 10.4 mph
(SSE 17 kph)
0.05 in
(1.27 mm)
10SM
02:53
Overcast
Light Rain
57°F / 14°C 50°F / 10°C 77% 29.65 in
(1004 mb)
SE 10.4 mph
(SE 17 kph)
0.04 in
(1.02 mm)
9SM
01:53
Overcast
Light Rain
57°F / 14°C 48°F / 9°C 72% 29.68 in
(1005 mb)
SSE 8.1 mph
(SSE 13 kph)
0.02 in
(0.51 mm)
10SM
00:53
Overcast
Light Rain
59°F / 15°C 48°F / 9°C 68% 29.68 in
(1005 mb)
SE 8.1 mph
(SE 13 kph)
0.01 in
(0.25 mm)
10SM
Time Weather Temperature Dewpoint Humidity Pressure Winds Precip Visibility


Weather for websites

WeatherForYou.com, LLC is not responsible for any damages or problems caused by this service. Current weather conditions are obtained from the closest station including government and personal stations which may have varying degrees of accuracy. Weather forecasts are derived from the NOAA NDFD. Like all things, this site belongs to Jesus Christ... He just trusts me to maintain it. If you have any questions or comments email webmaster@weatherforyou.com

Copyright © 2014, WeatherForYou.com LLC. All rights reserved.